Time,TemperatureF,DewpointF,PressureIn,WindDirection,WindDirectionDegrees,WindSpeedMPH,WindSpeedGustMPH,Humidity,HourlyPrecipIn,Conditions,Clouds,dailyrainin,SoftwareType,DateUTC
2013-05-07 00:03:00,51.0,47.0,30.30,East,90,1.0,1.0,85,0.00,,,0.01,,2013-05-07 04:03:00,
2013-05-07 00:12:00,51.0,47.0,30.30,East,90,1.0,1.0,85,0.00,,,0.01,,2013-05-07 04:12:00,
2013-05-07 00:23:00,51.0,47.0,30.30,East,81,1.0,2.0,85,0.00,,,0.01,,2013-05-07 04:23:00,
2013-05-07 00:33:00,51.0,47.0,30.30,ESE,104,1.0,1.0,85,0.00,,,0.01,,2013-05-07 04:33:00,
2013-05-07 00:42:00,51.0,47.0,30.30,ESE,104,1.0,1.0,85,0.00,,,0.01,,2013-05-07 04:42:00,
2013-05-07 00:53:00,51.0,47.0,30.29,NE,49,1.0,3.0,85,0.00,,,0.01,,2013-05-07 04:53:00,
2013-05-07 01:02:00,51.0,47.0,30.29,ENE,60,1.0,3.0,85,0.00,,,0.01,,2013-05-07 05:02:00,
2013-05-07 01:12:00,51.0,47.0,30.29,ENE,60,1.0,3.0,85,0.00,,,0.01,,2013-05-07 05:12:00,
2013-05-07 01:22:00,51.0,47.0,30.28,East,90,1.0,2.0,85,0.00,,,0.01,,2013-05-07 05:22:00,
2013-05-07 01:32:00,51.0,47.0,30.28,ENE,68,3.0,3.0,85,0.00,,,0.01,,2013-05-07 05:32:00,
2013-05-07 01:42:00,51.0,47.0,30.28,ENE,68,3.0,3.0,85,0.00,,,0.01,,2013-05-07 05:42:00,
2013-05-07 01:52:00,51.0,47.0,30.27,NE,45,3.0,3.0,85,0.00,,,0.01,,2013-05-07 05:52:00,
2013-05-07 02:02:00,51.0,47.0,30.27,NE,45,0.0,3.0,85,0.00,,,0.01,,2013-05-07 06:02:00,
2013-05-07 02:12:00,51.0,47.0,30.27,NE,45,0.0,3.0,85,0.00,,,0.01,,2013-05-07 06:12:00,
2013-05-07 02:22:00,51.0,47.0,30.27,NE,45,1.0,3.0,85,0.00,,,0.01,,2013-05-07 06:22:00,
2013-05-07 02:32:00,50.0,46.0,30.26,NE,45,2.0,2.0,86,0.00,,,0.01,,2013-05-07 06:32:00,
2013-05-07 02:42:00,50.0,46.0,30.26,NE,45,2.0,2.0,86,0.00,,,0.01,,2013-05-07 06:42:00,
2013-05-07 02:52:00,50.0,46.0,30.26,NNE,23,2.0,3.0,86,0.00,,,0.01,,2013-05-07 06:52:00,
2013-05-07 03:02:00,50.0,46.0,30.25,NNE,26,2.0,4.0,86,0.00,,,0.01,,2013-05-07 07:02:00,
2013-05-07 03:11:00,50.0,46.0,30.25,NNE,26,2.0,4.0,86,0.00,,,0.01,,2013-05-07 07:11:00,
2013-05-07 03:22:00,50.0,46.0,30.25,NNE,26,2.0,3.0,87,0.00,,,0.01,,2013-05-07 07:22:00,
2013-05-07 03:32:00,50.0,46.0,30.25,NNE,23,1.0,2.0,86,0.00,,,0.01,,2013-05-07 07:32:00,
2013-05-07 03:42:00,50.0,46.0,30.25,NNE,23,1.0,2.0,86,0.00,,,0.01,,2013-05-07 07:42:00,
2013-05-07 03:52:00,50.0,46.0,30.25,NE,56,2.0,5.0,86,0.00,,,0.01,,2013-05-07 07:52:00,
2013-05-07 04:02:00,50.0,46.0,30.25,NE,45,3.0,3.0,87,0.00,,,0.01,,2013-05-07 08:02:00,
2013-05-07 04:11:00,50.0,46.0,30.25,NE,45,3.0,3.0,87,0.00,,,0.01,,2013-05-07 08:11:00,
2013-05-07 04:22:00,50.0,46.0,30.25,ENE,68,0.0,1.0,87,0.00,,,0.01,,2013-05-07 08:22:00,
2013-05-07 04:32:00,50.0,46.0,30.25,North,0,1.0,1.0,87,0.00,,,0.01,,2013-05-07 08:32:00,
2013-05-07 04:42:00,50.0,46.0,30.25,North,0,1.0,1.0,87,0.00,,,0.01,,2013-05-07 08:42:00,
2013-05-07 04:52:00,50.0,46.0,30.25,NE,45,0.0,2.0,87,0.00,,,0.01,,2013-05-07 08:52:00,
2013-05-07 05:01:00,50.0,47.0,30.25,East,90,0.0,2.0,88,0.00,,,0.01,,2013-05-07 09:01:00,
2013-05-07 05:11:00,50.0,47.0,30.25,East,90,0.0,2.0,88,0.00,,,0.01,,2013-05-07 09:11:00,
2013-05-07 05:22:00,50.0,47.0,30.25,ESE,110,1.0,3.0,88,0.00,,,0.01,,2013-05-07 09:22:00,
2013-05-07 05:33:00,50.0,47.0,30.25,ENE,68,0.0,3.0,88,0.00,,,0.01,,2013-05-07 09:33:00,
2013-05-07 05:43:00,50.0,47.0,30.25,ENE,68,0.0,3.0,88,0.00,,,0.01,,2013-05-07 09:43:00,
2013-05-07 05:52:00,50.0,47.0,30.25,East,90,1.0,3.0,88,0.00,,,0.01,,2013-05-07 09:52:00,
2013-05-07 06:03:00,50.0,47.0,30.25,ENE,68,1.0,3.0,88,0.00,,,0.01,,2013-05-07 10:03:00,
2013-05-07 06:12:00,50.0,47.0,30.25,ENE,68,1.0,3.0,88,0.00,,,0.01,,2013-05-07 10:12:00,
2013-05-07 06:23:00,50.0,47.0,30.25,NE,45,4.0,4.0,88,0.00,,,0.01,,2013-05-07 10:23:00,
2013-05-07 06:32:00,50.0,47.0,30.24,ENE,68,0.0,4.0,88,0.00,,,0.01,,2013-05-07 10:32:00,
2013-05-07 06:42:00,50.0,47.0,30.24,ENE,68,0.0,4.0,88,0.00,,,0.01,,2013-05-07 10:42:00,
2013-05-07 06:52:00,50.0,47.0,30.24,ENE,68,0.0,4.0,88,0.00,,,0.01,,2013-05-07 10:52:00,
2013-05-07 07:02:00,50.0,47.0,30.25,NE,45,1.0,2.0,89,0.00,,,0.01,,2013-05-07 11:02:00,
2013-05-07 07:12:00,50.0,47.0,30.25,NE,45,1.0,2.0,89,0.00,,,0.01,,2013-05-07 11:12:00,
2013-05-07 07:22:00,50.0,47.0,30.26,ENE,68,1.0,4.0,89,0.00,,,0.01,,2013-05-07 11:22:00,
2013-05-07 07:32:00,50.0,47.0,30.26,NNE,23,1.0,4.0,89,0.00,,,0.01,,2013-05-07 11:32:00,
2013-05-07 07:42:00,50.0,47.0,30.26,NNE,23,1.0,4.0,89,0.00,,,0.01,,2013-05-07 11:42:00,
2013-05-07 07:52:00,50.0,47.0,30.27,NE,41,1.0,1.0,89,0.00,,,0.01,,2013-05-07 11:52:00,
2013-05-07 08:02:00,50.0,47.0,30.27,NE,41,1.0,1.0,89,0.00,,,0.01,,2013-05-07 12:02:00,
2013-05-07 08:11:00,50.0,47.0,30.27,NE,41,1.0,1.0,89,0.00,,,0.01,,2013-05-07 12:11:00,
2013-05-07 08:21:00,50.0,47.0,30.27,NE,41,1.0,1.0,89,0.00,,,0.01,,2013-05-07 12:21:00,
2013-05-07 08:32:00,51.0,48.0,30.27,NE,45,5.0,5.0,89,0.00,,,0.00,,2013-05-07 12:32:00,
2013-05-07 08:42:00,51.0,48.0,30.27,NE,45,5.0,5.0,89,0.00,,,0.00,,2013-05-07 12:42:00,
2013-05-07 08:52:00,51.0,48.0,30.28,ENE,68,2.0,5.0,89,0.00,,,0.00,,2013-05-07 12:52:00,
2013-05-07 09:02:00,52.0,49.0,30.28,North,0,2.0,5.0,90,0.00,,,0.00,,2013-05-07 13:02:00,
2013-05-07 09:11:00,52.0,49.0,30.28,North,0,2.0,5.0,90,0.00,,,0.00,,2013-05-07 13:11:00,
2013-05-07 09:22:00,52.0,49.0,30.28,NE,36,5.0,5.0,89,0.00,,,0.00,,2013-05-07 13:22:00,
2013-05-07 09:32:00,52.0,49.0,30.28,ENE,68,5.0,5.0,89,0.00,,,0.00,,2013-05-07 13:32:00,
2013-05-07 09:42:00,52.0,49.0,30.28,ENE,68,5.0,5.0,89,0.00,,,0.00,,2013-05-07 13:42:00,
2013-05-07 09:52:00,53.0,50.0,30.28,NNE,12,3.0,7.0,89,0.00,,,0.00,,2013-05-07 13:52:00,
2013-05-07 10:02:00,54.0,51.0,30.28,ENE,68,7.0,8.0,89,0.00,,,0.00,,2013-05-07 14:02:00,
2013-05-07 10:11:00,54.0,51.0,30.28,ENE,68,7.0,8.0,89,0.00,,,0.00,,2013-05-07 14:11:00,
2013-05-07 10:21:00,55.0,51.0,30.28,East,85,3.0,4.0,87,0.00,,,0.00,,2013-05-07 14:21:00,
2013-05-07 10:32:00,56.0,52.0,30.29,NNE,19,2.0,5.0,86,0.00,,,0.00,,2013-05-07 14:32:00,
2013-05-07 10:42:00,56.0,52.0,30.29,NNE,19,2.0,5.0,86,0.00,,,0.00,,2013-05-07 14:42:00,
2013-05-07 10:52:00,57.0,52.0,30.29,East,87,3.0,4.0,84,0.00,,,0.00,,2013-05-07 14:52:00,
2013-05-07 11:01:00,57.0,52.0,30.29,NE,45,1.0,3.0,84,0.00,,,0.00,,2013-05-07 15:01:00,
2013-05-07 11:12:00,57.0,52.0,30.29,NE,45,1.0,3.0,84,0.00,,,0.00,,2013-05-07 15:12:00,
2013-05-07 11:21:00,57.0,52.0,30.30,NNE,14,3.0,6.0,83,0.00,,,0.00,,2013-05-07 15:21:00,
2013-05-07 11:33:00,57.0,52.0,30.29,ENE,68,1.0,3.0,84,0.00,,,0.00,,2013-05-07 15:33:00,
2013-05-07 11:42:00,57.0,52.0,30.29,ENE,68,1.0,3.0,84,0.00,,,0.00,,2013-05-07 15:42:00,
2013-05-07 11:53:00,57.0,52.0,30.29,ENE,68,1.0,3.0,84,0.00,,,0.00,,2013-05-07 15:53:00,
2013-05-07 12:03:00,60.0,54.0,30.28,NNE,21,2.0,7.0,81,0.00,,,0.00,,2013-05-07 16:03:00,
2013-05-07 12:12:00,60.0,54.0,30.28,NNE,21,2.0,7.0,81,0.00,,,0.00,,2013-05-07 16:12:00,
2013-05-07 12:22:00,61.0,55.0,30.28,NE,49,4.0,6.0,80,0.00,,,0.00,,2013-05-07 16:22:00,
2013-05-07 12:32:00,61.0,54.0,30.28,NE,45,6.0,8.0,78,0.00,,,0.00,,2013-05-07 16:32:00,
2013-05-07 12:42:00,61.0,54.0,30.28,NE,45,6.0,8.0,78,0.00,,,0.00,,2013-05-07 16:42:00,
2013-05-07 12:51:00,61.0,54.0,30.28,NE,45,6.0,8.0,78,0.00,,,0.00,,2013-05-07 16:51:00,
2013-05-07 13:01:00,62.0,55.0,30.27,NE,44,4.0,5.0,77,0.00,,,0.00,,2013-05-07 17:01:00,
2013-05-07 13:12:00,62.0,55.0,30.27,NE,44,4.0,5.0,77,0.00,,,0.00,,2013-05-07 17:12:00,
2013-05-07 13:21:00,62.0,55.0,30.27,ESE,113,2.0,5.0,77,0.00,,,0.00,,2013-05-07 17:21:00,
2013-05-07 13:32:00,63.0,55.0,30.27,NNE,23,4.0,4.0,76,0.00,,,0.00,,2013-05-07 17:32:00,
2013-05-07 13:41:00,63.0,55.0,30.27,NNE,23,4.0,4.0,76,0.00,,,0.00,,2013-05-07 17:41:00,
2013-05-07 13:52:00,65.0,57.0,30.27,NNE,29,4.0,5.0,76,0.00,,,0.00,,2013-05-07 17:52:00,
2013-05-07 14:01:00,65.0,57.0,30.27,NE,45,2.0,6.0,75,0.00,,,0.00,,2013-05-07 18:01:00,
2013-05-07 14:11:00,65.0,57.0,30.27,NE,45,2.0,6.0,75,0.00,,,0.00,,2013-05-07 18:11:00,
2013-05-07 14:21:00,64.0,56.0,30.27,NNE,23,4.0,6.0,76,0.00,,,0.00,,2013-05-07 18:21:00,
2013-05-07 14:31:00,63.0,55.0,30.26,NE,45,6.0,6.0,76,0.00,,,0.00,,2013-05-07 18:31:00,
2013-05-07 14:42:00,63.0,55.0,30.26,NE,45,6.0,6.0,76,0.00,,,0.00,,2013-05-07 18:42:00,
2013-05-07 14:52:00,64.0,56.0,30.26,North,0,4.0,5.0,75,0.00,,,0.00,,2013-05-07 18:52:00,
2013-05-07 15:02:00,63.0,55.0,30.26,NE,45,3.0,8.0,75,0.00,,,0.00,,2013-05-07 19:02:00,
2013-05-07 15:11:00,63.0,55.0,30.26,NE,45,3.0,8.0,75,0.00,,,0.00,,2013-05-07 19:11:00,
2013-05-07 15:21:00,63.0,55.0,30.25,ENE,68,2.0,7.0,75,0.00,,,0.00,,2013-05-07 19:21:00,
2013-05-07 15:32:00,62.0,54.0,30.25,East,98,3.0,3.0,76,0.00,,,0.00,,2013-05-07 19:32:00,
2013-05-07 15:42:00,62.0,54.0,30.25,East,98,3.0,3.0,76,0.00,,,0.00,,2013-05-07 19:42:00,
2013-05-07 15:52:00,61.0,54.0,30.25,NE,45,1.0,5.0,77,0.00,,,0.00,,2013-05-07 19:52:00,
2013-05-07 16:02:00,60.0,53.0,30.24,NE,45,2.0,2.0,78,0.00,,,0.00,,2013-05-07 20:02:00,
2013-05-07 16:12:00,60.0,53.0,30.24,NE,45,2.0,2.0,78,0.00,,,0.00,,2013-05-07 20:12:00,
2013-05-07 16:22:00,60.0,53.0,30.24,North,0,3.0,3.0,79,0.00,,,0.00,,2013-05-07 20:22:00,
2013-05-07 16:32:00,59.0,53.0,30.24,ESE,113,2.0,4.0,80,0.00,,,0.00,,2013-05-07 20:32:00,
2013-05-07 16:42:00,59.0,53.0,30.24,ESE,113,2.0,4.0,80,0.00,,,0.00,,2013-05-07 20:42:00,
2013-05-07 16:51:00,59.0,53.0,30.23,East,80,1.0,3.0,80,0.00,,,0.00,,2013-05-07 20:51:00,
2013-05-07 17:02:00,60.0,54.0,30.23,ESE,113,2.0,2.0,81,0.00,,,0.00,,2013-05-07 21:02:00,
2013-05-07 17:11:00,60.0,54.0,30.23,ESE,113,2.0,2.0,81,0.00,,,0.00,,2013-05-07 21:11:00,
2013-05-07 17:22:00,62.0,55.0,30.23,ESE,113,3.0,3.0,79,0.00,,,0.00,,2013-05-07 21:22:00,
2013-05-07 17:33:00,63.0,56.0,30.23,NNE,23,4.0,4.0,77,0.00,,,0.00,,2013-05-07 21:33:00,
2013-05-07 17:42:00,63.0,56.0,30.23,NNE,23,4.0,4.0,77,0.00,,,0.00,,2013-05-07 21:42:00,
2013-05-07 17:53:00,62.0,55.0,30.23,NNE,13,2.0,4.0,77,0.00,,,0.00,,2013-05-07 21:53:00,
2013-05-07 18:02:00,62.0,55.0,30.22,East,96,1.0,4.0,78,0.00,,,0.00,,2013-05-07 22:02:00,
2013-05-07 18:13:00,62.0,55.0,30.22,East,96,1.0,4.0,78,0.00,,,0.00,,2013-05-07 22:13:00,
2013-05-07 18:22:00,61.0,54.0,30.22,ENE,68,1.0,5.0,79,0.00,,,0.00,,2013-05-07 22:22:00,
2013-05-07 18:33:00,60.0,53.0,30.22,NNE,19,3.0,4.0,79,0.00,,,0.00,,2013-05-07 22:33:00,
2013-05-07 18:42:00,60.0,53.0,30.22,NNE,19,3.0,4.0,79,0.00,,,0.00,,2013-05-07 22:42:00,
2013-05-07 18:52:00,60.0,54.0,30.22,ESE,113,3.0,4.0,80,0.00,,,0.00,,2013-05-07 22:52:00,
2013-05-07 19:02:00,59.0,53.0,30.23,ENE,68,1.0,3.0,81,0.00,,,0.00,,2013-05-07 23:02:00,
2013-05-07 19:12:00,59.0,53.0,30.23,ENE,68,1.0,3.0,81,0.00,,,0.00,,2013-05-07 23:12:00,
2013-05-07 19:21:00,58.0,52.0,30.23,NE,43,2.0,4.0,81,0.00,,,0.00,,2013-05-07 23:21:00,
2013-05-07 19:32:00,58.0,53.0,30.23,ENE,60,1.0,1.0,82,0.00,,,0.00,,2013-05-07 23:32:00,
2013-05-07 19:42:00,58.0,53.0,30.23,ENE,60,1.0,1.0,82,0.00,,,0.00,,2013-05-07 23:42:00,
2013-05-07 19:52:00,58.0,53.0,30.23,ENE,68,0.0,1.0,83,0.00,,,0.00,,2013-05-07 23:52:00,
2013-05-07 20:02:00,58.0,53.0,30.23,ENE,63,3.0,3.0,83,0.00,,,0.00,,2013-05-08 00:02:00,
2013-05-07 20:12:00,58.0,53.0,30.23,ENE,63,3.0,3.0,83,0.00,,,0.00,,2013-05-08 00:12:00,
2013-05-07 20:22:00,57.0,52.0,30.23,ENE,68,4.0,4.0,83,0.00,,,0.00,,2013-05-08 00:22:00,
2013-05-07 20:32:00,57.0,52.0,30.23,ESE,113,2.0,4.0,83,0.00,,,0.00,,2013-05-08 00:32:00,
2013-05-07 20:42:00,57.0,52.0,30.23,ESE,113,2.0,4.0,83,0.00,,,0.00,,2013-05-08 00:42:00,
2013-05-07 20:52:00,57.0,52.0,30.23,East,90,0.0,3.0,84,0.00,,,0.00,,2013-05-08 00:52:00,
2013-05-07 21:02:00,57.0,53.0,30.23,ENE,68,1.0,1.0,85,0.00,,,0.00,,2013-05-08 01:02:00,
2013-05-07 21:11:00,57.0,53.0,30.23,ENE,68,1.0,1.0,85,0.00,,,0.00,,2013-05-08 01:11:00,
2013-05-07 21:22:00,57.0,52.0,30.23,SSW,212,1.0,2.0,84,0.00,,,0.00,,2013-05-08 01:22:00,
2013-05-07 21:32:00,57.0,52.0,30.24,ENE,78,1.0,2.0,84,0.00,,,0.00,,2013-05-08 01:32:00,
2013-05-07 21:42:00,57.0,52.0,30.24,ENE,78,1.0,2.0,84,0.00,,,0.00,,2013-05-08 01:42:00,
2013-05-07 21:52:00,57.0,52.0,30.24,ENE,78,1.0,2.0,84,0.00,,,0.00,,2013-05-08 01:52:00,
2013-05-07 22:02:00,57.0,52.0,30.24,SE,135,2.0,3.0,84,0.00,,,0.00,,2013-05-08 02:02:00,
2013-05-07 22:12:00,57.0,52.0,30.24,SE,135,2.0,3.0,84,0.00,,,0.00,,2013-05-08 02:12:00,
2013-05-07 22:22:00,57.0,52.0,30.23,East,101,1.0,2.0,84,0.00,,,0.00,,2013-05-08 02:22:00,
2013-05-07 22:32:00,56.0,52.0,30.23,SE,135,1.0,2.0,85,0.00,,,0.00,,2013-05-08 02:32:00,
2013-05-07 22:42:00,56.0,52.0,30.23,SE,135,1.0,2.0,85,0.00,,,0.00,,2013-05-08 02:42:00,
2013-05-07 22:52:00,56.0,52.0,30.23,NNE,23,1.0,2.0,85,0.00,,,0.00,,2013-05-08 02:52:00,
2013-05-07 23:02:00,56.0,52.0,30.22,ENE,74,3.0,4.0,85,0.00,,,0.00,,2013-05-08 03:02:00,
2013-05-07 23:11:00,56.0,52.0,30.22,ENE,74,3.0,4.0,85,0.00,,,0.00,,2013-05-08 03:11:00,
2013-05-07 23:22:00,56.0,52.0,30.22,SE,135,2.0,3.0,85,0.00,,,0.00,,2013-05-08 03:22:00,
2013-05-07 23:33:00,56.0,52.0,30.22,NE,45,2.0,3.0,85,0.00,,,0.00,,2013-05-08 03:33:00,
2013-05-07 23:43:00,56.0,52.0,30.22,NE,45,2.0,3.0,85,0.00,,,0.00,,2013-05-08 03:43:00,
2013-05-07 23:52:00,56.0,52.0,30.22,ENE,68,1.0,3.0,85,0.00,,,0.00,,2013-05-08 03:52:00,